Location: Newark
(26.8229°N, 81.7649°W)
Time: 22:08:43
(UTC+00:00)

N. Korean satellite - Pass Details

Date: 28 January 2020
Orbit: 456 x 505 km, 97.2° (Epoch: 19 February)

Event Time Altitude Azimuth Distance (km) Brightness Sun altitude
Rises 10:47:32 0° 19° (NNE) 2,556 10.3 -19.5°
Reaches altitude 10° 10:49:39 10° 25° (NNE) 1,681 9.4 -19.0°
Maximum altitude 10:53:08 46° 99° (E) 676 7.7 -18.3°
Drops below altitude 10° 10:56:39 10° 174° (S) 1,695 9.5 -17.5°
Sets 10:58:47 0° 180° (S) 2,580 10.4 -17.0°
